Regional Weather Roundup
Issued by NWS

Home | Current Version | Previous Version | Graphics & Text | Print | Product List | Glossary On
Versions: 1 2 3 4 5 6 7 8 9 10 11 12 13 14 15 16 17 18 19 20 21 22 23 24 25 26 27 28 29 30 31 32 33 34 35 36 37 38 39 40 41 42 43 44 45 46 47 48 49 50
000
ASUS45 KCYS 280710
RWRWY

WYOMING REGIONAL WEATHER ROUNDUP
NATIONAL WEATHER SERVICE CHEYENNE WY
1200 AM MST SAT FEB 28 2015

NOTE:  "FAIR" INDICATES FEW OR NO CLOUDS BELOW 12,000 FEET
WITH NO SIGNIFICANT WEATHER AND/OR OBSTRUCTIONS TO VISIBILITY.

WYZ001-280800-
YELLOWSTONE NATIONAL PARK

CITY           SKY/WX    TMP DP  RH WIND       PRES   REMARKS
LK YELLOWSTONE   N/A     -4  -9  79 NW3       29.77S
W YELLOWSTONE  NOT AVBL

$$
WYZ002>013-054>058-071-098>099-280800-
NORTHERN WYOMING

CITY           SKY/WX    TMP DP  RH WIND       PRES   REMARKS
JACKSON        CLOUDY    18  16  93 N12       29.76S WCI   5
CODY           FAIR      14   9  79 NE3       29.91S
GREYBULL       MOCLDY    22  10  60 NW12      29.95R WCI  10
WORLAND        CLOUDY    21  16  81 W5        29.94R WCI  15
SHERIDAN       FAIR      11   2  67 NW10      30.01R WCI  -3
BUFFALO        FAIR      12   0  58 N8        29.92S WCI   0
GILLETTE       FAIR      11   6  81 NW8       29.94R WCI  -1
HULETT         FAIR      18  10  73 SW8       29.93S WCI   7
NEWCASTLE      CLOUDY    16   9  73 E7        29.97S WCI   6

$$
WYZ014>020-022>026-101>103-280800-
CENTRAL WYOMING

CITY           SKY/WX    TMP DP  RH WIND       PRES   REMARKS
BIG PINEY      LGT SNOW  16  12  84 N7        29.76S FOG     WCI   6
PINEDALE       LGT SNOW  10   9  92 W6        29.77S WCI   1
DUBOIS         LGT SNOW   9   5  85 W5        29.79S WCI   0
LANDER         LGT SNOW  17   8  67 W5        29.88R WCI  10
RIVERTON       CLOUDY    14   7  73 SW7       29.89S WCI   4
CASPER         CLOUDY    17  11  77 N3        29.88R
DOUGLAS        FAIR       9   3  77 CALM      29.91R

$$
WYZ021-027>030-104>119-280800-
SOUTHERN WYOMING

CITY           SKY/WX    TMP DP  RH WIND       PRES   REMARKS
EVANSTON       FAIR      20  14  77 E7        29.69F WCI  11
FORT BRIDGER   FAIR      18  14  85 S10       29.74S WCI   6
ROCK SPRINGS   CLOUDY    18  12  77 NE10      29.74S WCI   6
DIXON          FAIR      18   8  66 E8        29.79S WCI   7
RAWLINS        MOCLDY    16   8  71 NE3       29.77S
SARATOGA       FAIR      10   3  72 W3        29.77S
LARAMIE        FAIR      -1  -5  82 SW7       29.76S WCI -14
CHEYENNE       FAIR       3  -1  83 SW7       29.82S WCI  -9
TORRINGTON     FAIR      10   5  80 E9        29.94F WCI  -3
PINE BLUFFS    FAIR       5   1  85 MISG      29.91S

$$


USA.gov is the U.S. government's official web portal to all federal, state and local government web resources and services.